Regional Weather Roundup
Issued by NWS Sterling, VA

Home | Current Version | Previous Version | Text Only | Print | Product List | Glossary Off
Versions: 1 2 3 4 5 6 7 8 9 10 11 12 13 14 15 16 17 18 19 20 21 22 23 24 25 26 27 28 29 30 31 32 33 34 35 36 37 38 39 40 41 42 43 44 45 46 47 48 49 50

000
ASUS41 KLWX 271010
RWRLWX

REGIONAL WEATHER ROUNDUP
NATIONAL WEATHER SERVICE BALTIMORE MD/WASHINGTON DC
600 AM EDT MON APR 27 2015

Note: "FAIR" indicates few or no clouds below 12,000 feet
with no significant weather and/or obstructions to visibility.
 TC=TEMPERATURE CELSIUS

 * =Non NWS site. Station does not report precipitation (e.g. rain,
    snow, etc.), thunder, or fog.

DCZ001-MDZ009-015-VAZ040>042-051-053>054-271100-
WASHINGTON METRO

CITY           SKY/WX    TMP DP  RH WIND       PRES   REMARKS
WASHINGTON NAT PTCLDY    49  32  52 NW9       29.76S
DULLES         PTCLDY    40  32  73 CALM      29.76S
ANDREWS AFB    PTCLDY    42  31  64 N3        29.74R
FT BELVOIR     CLEAR     40  34  77 NW2       29.76R
QUANTICO       CLEAR     43  34  70 NW9       29.77S
COLLEGE PARK*  CLOUDY    41  36  81 CALM      29.75S
LEESBURG*      CLOUDY    43  36  75 NW5       29.77S
MANASSAS*      CLEAR     36  36 100 CALM      29.77S
GAITHERSBURG*  CLOUDY    41  30  65 CALM      29.79S

$$

MDZ006>007-011-014-271100-
BALTIMORE METRO

CITY           SKY/WX    TMP DP  RH WIND       PRES   REMARKS
BWI AIRPORT    MOCLDY    43  33  68 CALM      29.74S
MD SCIENCE CTR   N/A     51  30  44 MISG      29.75R
MARTIN STATE   MOCLDY    46  37  71 NW3       29.76S
ANNAPOLIS      MOCLDY    47  37  68 CALM      29.74R
FORT MEADE*    CLOUDY    39  36  87 CALM      29.77S

$$

MDZ012-015-019>023-271100-
MARYLAND EASTERN SHORE

CITY           SKY/WX    TMP DP  RH WIND       PRES   REMARKS
OCEAN CITY     CLEAR     36  34  92 N3        29.72S
SALISBURY      CLEAR     36  33  89 CALM      29.72S
BAY BRIDGE AP*   N/A    N/A N/A N/A N5        29.74S
CAMBRIDGE*     CLEAR     41  37  87 CALM      29.73R
EASTON*        PTCLDY    43  37  80 NE3       29.77R

$$

MDZ017>025-271100-
SOUTHERN MARYLAND

CITY           SKY/WX    TMP DP  RH WIND       PRES   REMARKS
PATUXENT RIVER PTCLDY    48  37  65 N6        29.73R
ST INIGOES     CLEAR     48  38  68 N6        29.72R
LEONARDTOWN*   MOCLDY    43  36  75 CALM      29.75R

$$

MDZ003>005-271100-
NORTH CENTRAL MARYLAND

CITY           SKY/WX    TMP DP  RH WIND       PRES   REMARKS
FREDERICK*     CLOUDY    41  34  75 SE3       29.78S
HAGERSTOWN APT CLOUDY    44  31  60 NW6       29.76S
WESTMINSTER*   CLOUDY    43  34  70 SW3       29.74S

$$

MDZ501>502-271100-
WESTERN MARYLAND

CITY           SKY/WX    TMP DP  RH WIND       PRES   REMARKS
OAKLAND*       CLEAR     32 N/A N/A W6        29.75F
CUMBERLAND*    CLOUDY    45  32  61 CALM      29.83R

$$

VAZ025>031-271100-
SHENANDOAH VALLEY

CITY           SKY/WX    TMP DP  RH WIND       PRES   REMARKS
WINCHESTER*    PTCLDY    41  28  60 CALM      29.77S
FRONT ROYAL*   PTSUNNY   37  32  81 CALM      29.77S
LURAY*         FAIR      37  34  87 S3        29.78R
NEW MARKET*    FAIR      34  32  92 CALM      29.78S
STAUNTON*      CLEAR     33  32  94 CALM      29.79S
WAYNESBORO*    FAIR      34  34  98 SW3       29.77S

$$

WVZ021-048>050-054>055-271100-
EASTERN WEST VIRGINIA PANHANDLE

CITY           SKY/WX    TMP DP  RH WIND       PRES   REMARKS
MARTINSBURG    CLEAR     46  29  51 NW7       29.77S
PETERSBURG*    CLEAR     36  32  85 CALM      29.81S

$$

VAZ036>039-050-271100-
CENTRAL FOOTHILLS

CITY           SKY/WX    TMP DP  RH WIND       PRES   REMARKS
CHARLOTTESVILL CLEAR     41  32  70 CALM      29.76S
CULPEPER*      CLEAR     37  36  93 CALM      29.77S
ORANGE*        CLEAR     45  32  61 CALM      29.78S
GORDONSVILLE*  FAIR      44  31  60 CALM      29.76S
WARRENTON*     FAIR      35  33  94 CALM      29.76S

$$

VAZ055>057-271100-
NORTH AND CENTRAL PIEDMONT

CITY           SKY/WX    TMP DP  RH WIND       PRES   REMARKS
FREDERICKSBRG* CLEAR     39  37  89 CALM      29.75S
STAFFORD*      CLEAR     38  32  77 NW7       29.80S

$$

NCZ024-NYZ072-PAZ021-071-VAZ022-071-271100-
OTHER REGIONAL OBSERVATIONS

CITY           SKY/WX    TMP DP  RH WIND       PRES   REMARKS
NEW YORK CITY  CLOUDY    49  30  48 NW5       29.69S
PHILADELPHIA   CLOUDY    49  29  46 W9        29.72F
PITTSBURGH     PTCLDY    37  31  78 NW8       29.82S
ROANOKE        CLEAR     42  36  79 W6        29.80R
RICHMOND       CLEAR     44  40  85 NW5       29.73S
RALEIGH        PTCLDY    40  39  97 CALM      29.77R

$$

ANZ530>537-271100-
MARINE OBSERVATIONS

STATION/POSITION TIME  TEMP    WIND        PRES
                       AIR SEA DIR/SP/G
                 (UTC) (F)     (DEG/KT/KT) (MB)
THOMAS PT LIGHT  1000   50 53  330/  8/  9 1007.7R
BALT KEY BRIDGE  0900   51     330/  6/  7 1006.9F
COVE POINT       0900   50      40/  8/  9 1007.3R
LEWISETTA        0900   51 58              1006.0R
SOLOMONS ISLAND  0900      54                N/A
PINEY POINT      0900           50/ 10/ 12   N/A

$$



USA.gov is the U.S. government's official web portal to all federal, state and local government web resources and services.